Time,TemperatureF,DewpointF,PressureIn,WindDirection,WindDirectionDegrees,WindSpeedMPH,WindSpeedGustMPH,Humidity,HourlyPrecipIn,Conditions,Clouds,dailyrainin,SoftwareType,DateUTC
2013-03-09 00:00:00,39.7,31.8,30.25,SE,127,8.0,17.0,73,0.00,,,0.08,Wunderground v.1.15,2013-03-09 08:00:00,
2013-03-09 00:05:00,40.1,31.4,30.25,SE,129,10.0,21.0,71,0.00,,,0.08,Wunderground v.1.15,2013-03-09 08:05:00,
2013-03-09 00:15:00,40.6,31.2,30.25,SE,142,8.0,21.0,69,0.00,,,0.08,Wunderground v.1.15,2013-03-09 08:15:00,
2013-03-09 00:20:00,40.5,31.1,30.25,SE,146,6.0,6.0,69,0.00,,,0.08,Wunderground v.1.15,2013-03-09 08:20:00,
2013-03-09 00:30:00,40.2,31.2,30.26,SE,143,7.0,21.0,70,0.00,,,0.08,Wunderground v.1.15,2013-03-09 08:30:00,
2013-03-09 00:35:00,40.0,31.0,30.25,SE,140,8.0,21.0,70,0.00,,,0.08,Wunderground v.1.15,2013-03-09 08:35:00,
2013-03-09 00:40:00,40.1,31.1,30.26,SSE,152,10.0,10.0,70,0.00,,,0.08,Wunderground v.1.15,2013-03-09 08:40:00,
2013-03-09 00:45:00,40.1,31.4,30.26,SE,138,9.0,12.0,71,0.00,,,0.08,Wunderground v.1.15,2013-03-09 08:45:00,
2013-03-09 00:55:00,39.6,31.7,30.26,SE,135,8.0,16.0,73,0.00,,,0.08,Wunderground v.1.15,2013-03-09 08:55:00,
2013-03-09 01:00:00,39.6,31.7,30.26,SE,146,8.0,8.0,73,0.00,,,0.08,Wunderground v.1.15,2013-03-09 09:00:00,
2013-03-09 01:05:00,39.7,31.4,30.26,SE,135,6.0,16.0,72,0.00,,,0.00,Wunderground v.1.15,2013-03-09 09:05:00,
2013-03-09 01:15:00,39.6,31.3,30.26,SE,135,1.0,16.0,72,0.00,,,0.00,Wunderground v.1.15,2013-03-09 09:15:00,
2013-03-09 01:20:00,39.5,31.2,30.26,SE,138,1.0,1.0,72,0.00,,,0.00,Wunderground v.1.15,2013-03-09 09:20:00,
2013-03-09 01:30:00,39.5,31.2,30.26,SE,138,0.0,16.0,72,0.00,,,0.00,Wunderground v.1.15,2013-03-09 09:30:00,
2013-03-09 01:35:00,39.1,31.2,30.27,SE,142,0.0,16.0,73,0.00,,,0.00,Wunderground v.1.15,2013-03-09 09:35:00,
2013-03-09 01:45:00,38.2,31.3,30.27,SE,144,0.0,9.0,76,0.00,,,0.00,Wunderground v.1.15,2013-03-09 09:45:00,
2013-03-09 01:50:00,37.9,31.7,30.27,SE,144,0.0,9.0,78,0.00,,,0.00,Wunderground v.1.15,2013-03-09 09:50:00,
2013-03-09 02:00:00,38.1,31.5,30.27,ENE,59,1.0,1.0,77,0.00,,,0.00,Wunderground v.1.15,2013-03-09 10:00:00,
2013-03-09 02:05:00,38.1,31.5,30.27,ENE,59,1.0,6.0,77,0.00,,,0.00,Wunderground v.1.15,2013-03-09 10:05:00,
2013-03-09 02:15:00,38.2,31.9,30.28,ENE,59,0.0,6.0,78,0.00,,,0.00,Wunderground v.1.15,2013-03-09 10:15:00,
2013-03-09 02:20:00,38.2,31.6,30.28,ENE,59,0.0,6.0,77,0.00,,,0.00,Wunderground v.1.15,2013-03-09 10:20:00,
2013-03-09 02:30:00,38.2,31.6,30.28,ENE,59,0.0,6.0,77,0.00,,,0.00,Wunderground v.1.15,2013-03-09 10:30:00,
2013-03-09 02:35:00,38.4,31.8,30.28,SE,129,0.0,8.0,77,0.00,,,0.00,Wunderground v.1.15,2013-03-09 10:35:00,
2013-03-09 02:45:00,39.5,31.9,30.28,SE,135,3.0,7.0,74,0.00,,,0.00,Wunderground v.1.15,2013-03-09 10:45:00,
2013-03-09 02:50:00,39.5,31.9,30.28,SE,129,3.0,7.0,74,0.00,,,0.00,Wunderground v.1.15,2013-03-09 10:50:00,
2013-03-09 03:00:00,39.2,31.9,30.28,ESE,116,3.0,3.0,75,0.00,,,0.00,Wunderground v.1.15,2013-03-09 11:00:00,
2013-03-09 03:10:00,39.2,31.9,30.29,SSE,154,2.0,11.0,75,0.00,,,0.00,Wunderground v.1.15,2013-03-09 11:10:00,
2013-03-09 03:15:00,39.1,32.2,30.29,SSE,154,1.0,11.0,76,0.00,,,0.00,Wunderground v.1.15,2013-03-09 11:15:00,
2013-03-09 03:20:00,39.1,32.2,30.29,SSE,154,0.0,11.0,76,0.00,,,0.00,Wunderground v.1.15,2013-03-09 11:20:00,
2013-03-09 03:30:00,39.0,32.1,30.29,SSE,152,0.0,11.0,76,0.00,,,0.00,Wunderground v.1.15,2013-03-09 11:30:00,
2013-03-09 03:35:00,39.0,32.1,30.29,SSE,152,0.0,11.0,76,0.00,,,0.00,Wunderground v.1.15,2013-03-09 11:35:00,
2013-03-09 03:45:00,39.1,31.8,30.30,SSE,152,0.0,8.0,75,0.00,,,0.00,Wunderground v.1.15,2013-03-09 11:45:00,
2013-03-09 03:50:00,39.2,31.9,30.30,SSE,152,1.0,1.0,75,0.00,,,0.00,Wunderground v.1.15,2013-03-09 11:50:00,
2013-03-09 03:55:00,39.1,31.8,30.30,SE,142,1.0,5.0,75,0.00,,,0.00,Wunderground v.1.15,2013-03-09 11:55:00,
2013-03-09 04:00:00,39.2,31.9,30.30,SSE,148,2.0,8.0,75,0.00,,,0.00,Wunderground v.1.15,2013-03-09 12:00:00,
2013-03-09 04:10:00,38.9,32.0,30.31,SE,140,3.0,9.0,76,0.00,,,0.00,Wunderground v.1.15,2013-03-09 12:10:00,
2013-03-09 04:15:00,38.9,32.3,30.31,SE,140,1.0,9.0,77,0.00,,,0.00,Wunderground v.1.15,2013-03-09 12:15:00,
2013-03-09 04:20:00,38.8,31.9,30.31,SE,140,1.0,1.0,76,0.00,,,0.00,Wunderground v.1.15,2013-03-09 12:20:00,
2013-03-09 04:30:00,38.9,32.0,30.31,SE,140,0.0,9.0,76,0.00,,,0.00,Wunderground v.1.15,2013-03-09 12:30:00,
2013-03-09 04:35:00,38.8,31.9,30.31,SE,140,2.0,9.0,76,0.00,,,0.00,Wunderground v.1.15,2013-03-09 12:35:00,
2013-03-09 04:45:00,38.6,32.0,30.31,SE,140,2.0,6.0,77,0.00,,,0.00,Wunderground v.1.15,2013-03-09 12:45:00,
2013-03-09 04:50:00,38.5,31.9,30.31,SE,140,1.0,1.0,77,0.00,,,0.00,Wunderground v.1.15,2013-03-09 12:50:00,
2013-03-09 05:00:00,38.6,32.0,30.31,SE,140,1.0,1.0,77,0.00,,,0.00,Wunderground v.1.15,2013-03-09 13:00:00,
2013-03-09 05:05:00,38.7,31.8,30.31,SE,140,0.0,4.0,76,0.00,,,0.00,Wunderground v.1.15,2013-03-09 13:05:00,
2013-03-09 05:15:00,38.7,31.5,30.31,SE,140,0.0,4.0,75,0.00,,,0.00,Wunderground v.1.15,2013-03-09 13:15:00,
2013-03-09 05:20:00,38.8,31.2,30.31,SE,128,1.0,4.0,74,0.00,,,0.00,Wunderground v.1.15,2013-03-09 13:20:00,
2013-03-09 05:25:00,38.9,31.3,30.31,SE,128,2.0,4.0,74,0.00,,,0.00,Wunderground v.1.15,2013-03-09 13:25:00,
2013-03-09 05:35:00,38.7,30.8,30.31,SE,128,0.0,6.0,73,0.00,,,0.00,Wunderground v.1.15,2013-03-09 13:35:00,
2013-03-09 05:40:00,38.3,31.1,30.31,SE,128,0.0,6.0,75,0.00,,,0.00,Wunderground v.1.15,2013-03-09 13:40:00,
2013-03-09 05:45:00,37.9,31.3,30.31,SE,128,0.0,6.0,77,0.00,,,0.00,Wunderground v.1.15,2013-03-09 13:45:00,
2013-03-09 05:50:00,37.6,31.0,30.31,SE,128,0.0,6.0,77,0.00,,,0.00,Wunderground v.1.15,2013-03-09 13:50:00,
2013-03-09 06:00:00,37.3,30.7,30.32,SE,128,0.0,6.0,77,0.00,,,0.00,Wunderground v.1.15,2013-03-09 14:00:00,
2013-03-09 06:05:00,37.0,30.8,30.31,SE,128,0.0,6.0,78,0.00,,,0.00,Wunderground v.1.15,2013-03-09 14:05:00,
2013-03-09 06:15:00,37.3,30.4,30.32,SE,128,0.0,0.0,76,0.00,,,0.00,Wunderground v.1.15,2013-03-09 14:15:00,
2013-03-09 06:20:00,37.4,30.2,30.32,SE,128,0.0,0.0,75,0.00,,,0.00,Wunderground v.1.15,2013-03-09 14:20:00,
2013-03-09 06:30:00,38.4,30.5,30.32,SE,128,0.0,0.0,73,0.00,,,0.00,Wunderground v.1.15,2013-03-09 14:30:00,
2013-03-09 06:40:00,39.5,30.9,30.33,SE,140,1.0,4.0,71,0.00,,,0.00,Wunderground v.1.15,2013-03-09 14:40:00,
2013-03-09 06:45:00,40.0,31.0,30.33,SSE,160,3.0,4.0,70,0.00,,,0.00,Wunderground v.1.15,2013-03-09 14:45:00,
2013-03-09 06:50:00,40.4,31.0,30.33,SSE,149,4.0,4.0,69,0.00,,,0.00,Wunderground v.1.15,2013-03-09 14:50:00,
2013-03-09 07:00:00,40.9,31.1,30.34,SSE,149,1.0,1.0,68,0.00,,,0.00,Wunderground v.1.15,2013-03-09 15:00:00,
2013-03-09 07:05:00,41.1,31.3,30.33,SSE,149,1.0,10.0,68,0.00,,,0.00,Wunderground v.1.15,2013-03-09 15:05:00,
2013-03-09 07:15:00,42.0,31.5,30.34,SSE,149,0.0,10.0,66,0.00,,,0.00,Wunderground v.1.15,2013-03-09 15:15:00,
2013-03-09 07:20:00,42.7,31.0,30.35,SSE,149,0.0,10.0,63,0.00,,,0.00,Wunderground v.1.15,2013-03-09 15:20:00,
2013-03-09 07:30:00,43.3,31.1,30.35,SSE,149,0.0,10.0,62,0.00,,,0.00,Wunderground v.1.15,2013-03-09 15:30:00,
2013-03-09 07:35:00,43.5,30.9,30.35,SSE,149,1.0,10.0,61,0.00,,,0.00,Wunderground v.1.15,2013-03-09 15:35:00,
2013-03-09 07:45:00,45.1,30.8,30.36,SSE,149,0.0,4.0,57,0.00,,,0.00,Wunderground v.1.15,2013-03-09 15:45:00,
2013-03-09 07:50:00,45.2,30.4,30.36,SSE,149,0.0,4.0,56,0.00,,,0.00,Wunderground v.1.15,2013-03-09 15:50:00,
2013-03-09 08:00:00,45.4,30.2,30.36,SSE,149,1.0,4.0,55,0.00,,,0.00,Wunderground v.1.15,2013-03-09 16:00:00,
2013-03-09 08:05:00,45.8,31.0,30.36,SE,142,3.0,5.0,56,0.00,,,0.00,Wunderground v.1.15,2013-03-09 16:05:00,
2013-03-09 08:15:00,45.9,29.7,30.37,SSE,148,4.0,8.0,53,0.00,,,0.00,Wunderground v.1.15,2013-03-09 16:15:00,
2013-03-09 08:20:00,46.4,29.7,30.37,SE,146,3.0,8.0,52,0.00,,,0.00,Wunderground v.1.15,2013-03-09 16:20:00,
2013-03-09 08:30:00,46.6,29.4,30.38,SSE,156,3.0,3.0,51,0.00,,,0.00,Wunderground v.1.15,2013-03-09 16:30:00,
2013-03-09 08:35:00,46.9,29.7,30.38,SSE,152,2.0,9.0,51,0.00,,,0.00,Wunderground v.1.15,2013-03-09 16:35:00,
2013-03-09 08:40:00,46.9,30.2,30.38,South,173,2.0,2.0,52,0.00,,,0.00,Wunderground v.1.15,2013-03-09 16:40:00,
2013-03-09 08:45:00,47.0,30.7,30.38,West,279,1.0,9.0,53,0.00,,,0.00,Wunderground v.1.15,2013-03-09 16:45:00,
2013-03-09 08:55:00,47.2,30.5,30.39,West,278,1.0,9.0,52,0.00,,,0.00,Wunderground v.1.15,2013-03-09 16:55:00,
2013-03-09 09:00:00,48.1,30.8,30.39,West,278,0.0,9.0,51,0.00,,,0.00,Wunderground v.1.15,2013-03-09 17:00:00,
2013-03-09 09:05:00,48.4,30.1,30.39,WSW,249,1.0,9.0,49,0.00,,,0.00,Wunderground v.1.15,2013-03-09 17:05:00,
2013-03-09 09:15:00,48.4,30.1,30.39,South,190,4.0,7.0,49,0.00,,,0.00,Wunderground v.1.15,2013-03-09 17:15:00,
2013-03-09 09:20:00,48.6,31.3,30.39,South,184,3.0,7.0,51,0.00,,,0.00,Wunderground v.1.15,2013-03-09 17:20:00,
2013-03-09 09:30:00,49.1,30.7,30.39,South,182,2.0,7.0,49,0.00,,,0.00,Wunderground v.1.15,2013-03-09 17:30:00,
2013-03-09 09:35:00,48.9,30.6,30.39,South,179,2.0,8.0,49,0.00,,,0.00,Wunderground v.1.15,2013-03-09 17:35:00,
2013-03-09 09:40:00,49.3,28.8,30.39,SSE,157,3.0,3.0,45,0.00,,,0.00,Wunderground v.1.15,2013-03-09 17:40:00,
2013-03-09 09:45:00,49.4,28.9,30.40,SSE,157,3.0,8.0,45,0.00,,,0.00,Wunderground v.1.15,2013-03-09 17:45:00,
2013-03-09 09:50:00,49.8,28.7,30.39,SSE,157,1.0,8.0,44,0.00,,,0.00,Wunderground v.1.15,2013-03-09 17:50:00,
2013-03-09 10:00:00,50.1,29.0,30.40,WSW,239,5.0,5.0,44,0.00,,,0.00,Wunderground v.1.15,2013-03-09 18:00:00,
2013-03-09 10:05:00,50.3,28.1,30.40,SW,228,5.0,12.0,42,0.00,,,0.00,Wunderground v.1.15,2013-03-09 18:05:00,
2013-03-09 10:15:00,50.6,26.5,30.40,WSW,247,4.0,12.0,39,0.00,,,0.00,Wunderground v.1.15,2013-03-09 18:15:00,
2013-03-09 10:20:00,50.5,24.5,30.40,West,278,5.0,5.0,36,0.00,,,0.00,Wunderground v.1.15,2013-03-09 18:20:00,
2013-03-09 10:25:00,51.1,24.4,30.40,WSW,248,7.0,10.0,35,0.00,,,0.00,Wunderground v.1.15,2013-03-09 18:25:00,
2013-03-09 10:30:00,51.8,24.3,30.40,SW,232,8.0,8.0,34,0.00,,,0.00,Wunderground v.1.15,2013-03-09 18:30:00,
2013-03-09 10:40:00,52.2,24.6,30.40,West,271,7.0,7.0,34,0.00,,,0.00,Wunderground v.1.15,2013-03-09 18:40:00,
2013-03-09 10:50:00,52.0,24.5,30.40,WSW,245,7.0,16.0,34,0.00,,,0.00,Wunderground v.1.15,2013-03-09 18:50:00,
2013-03-09 10:55:00,51.9,24.4,30.40,West,274,8.0,16.0,34,0.00,,,0.00,Wunderground v.1.15,2013-03-09 18:55:00,
2013-03-09 11:05:00,52.4,25.5,30.40,West,270,8.0,18.0,35,0.00,,,0.00,Wunderground v.1.15,2013-03-09 19:05:00,
2013-03-09 11:10:00,52.1,25.3,30.40,WNW,303,10.0,10.0,35,0.00,,,0.00,Wunderground v.1.15,2013-03-09 19:10:00,
2013-03-09 11:15:00,51.9,25.1,30.40,West,262,10.0,12.0,35,0.00,,,0.00,Wunderground v.1.15,2013-03-09 19:15:00,
2013-03-09 11:20:00,52.1,25.9,30.40,NW,310,10.0,10.0,36,0.00,,,0.00,Wunderground v.1.15,2013-03-09 19:20:00,
2013-03-09 11:30:00,52.1,25.9,30.40,WNW,300,10.0,10.0,36,0.00,,,0.00,Wunderground v.1.15,2013-03-09 19:30:00,
2013-03-09 11:35:00,52.0,25.2,30.41,West,269,10.0,20.0,35,0.00,,,0.00,Wunderground v.1.15,2013-03-09 19:35:00,
2013-03-09 11:45:00,52.1,25.3,30.40,West,268,9.0,10.0,35,0.00,,,0.00,Wunderground v.1.15,2013-03-09 19:45:00,
2013-03-09 11:50:00,52.5,25.6,30.40,WNW,293,9.0,20.0,35,0.00,,,0.00,Wunderground v.1.15,2013-03-09 19:50:00,
2013-03-09 12:00:00,52.3,25.4,30.41,West,280,10.0,10.0,35,0.00,,,0.00,Wunderground v.1.15,2013-03-09 20:00:00,
2013-03-09 12:10:00,52.8,25.9,30.41,WNW,287,9.0,21.0,35,0.00,,,0.00,Wunderground v.1.15,2013-03-09 20:10:00,
2013-03-09 12:15:00,52.9,26.0,30.41,West,261,9.0,21.0,35,0.00,,,0.00,Wunderground v.1.15,2013-03-09 20:15:00,
2013-03-09 12:20:00,52.7,26.5,30.41,WNW,296,10.0,10.0,36,0.00,,,0.00,Wunderground v.1.15,2013-03-09 20:20:00,
2013-03-09 12:30:00,53.3,27.0,30.40,West,274,9.0,9.0,36,0.00,,,0.00,Wunderground v.1.15,2013-03-09 20:30:00,
2013-03-09 12:35:00,52.4,25.5,30.40,WNW,297,10.0,10.0,35,0.00,,,0.00,Wunderground v.1.15,2013-03-09 20:35:00,
2013-03-09 12:45:00,52.1,26.6,30.40,WNW,303,13.0,21.0,37,0.00,,,0.00,Wunderground v.1.15,2013-03-09 20:45:00,
2013-03-09 12:50:00,52.4,26.9,30.40,West,262,14.0,14.0,37,0.00,,,0.00,Wunderground v.1.15,2013-03-09 20:50:00,
2013-03-09 13:00:00,52.4,26.9,30.41,West,273,12.0,12.0,37,0.00,,,0.00,Wunderground v.1.15,2013-03-09 21:00:00,
2013-03-09 13:10:00,52.1,26.6,30.40,West,260,13.0,26.0,37,0.00,,,0.00,Wunderground v.1.15,2013-03-09 21:10:00,
2013-03-09 13:15:00,52.1,27.2,30.40,WNW,291,11.0,26.0,38,0.00,,,0.00,Wunderground v.1.15,2013-03-09 21:15:00,
2013-03-09 13:20:00,52.0,27.1,30.41,WNW,303,12.0,12.0,38,0.00,,,0.00,Wunderground v.1.15,2013-03-09 21:20:00,
2013-03-09 13:30:00,52.4,27.5,30.40,West,273,11.0,11.0,38,0.00,,,0.00,Wunderground v.1.15,2013-03-09 21:30:00,
2013-03-09 13:35:00,52.6,27.7,30.40,WSW,251,11.0,25.0,38,0.00,,,0.00,Wunderground v.1.15,2013-03-09 21:35:00,
2013-03-09 13:45:00,52.9,28.0,30.40,West,277,12.0,18.0,38,0.00,,,0.00,Wunderground v.1.15,2013-03-09 21:45:00,
2013-03-09 13:50:00,52.4,27.5,30.40,WNW,299,11.0,11.0,38,0.00,,,0.00,Wunderground v.1.15,2013-03-09 21:50:00,
2013-03-09 14:00:00,52.0,27.8,30.40,West,264,11.0,11.0,39,0.00,,,0.00,Wunderground v.1.15,2013-03-09 22:00:00,
2013-03-09 14:05:00,52.7,27.8,30.40,WSW,256,10.0,24.0,38,0.00,,,0.00,Wunderground v.1.15,2013-03-09 22:05:00,
2013-03-09 14:15:00,52.6,27.0,30.40,WNW,289,10.0,12.0,37,0.00,,,0.00,Wunderground v.1.15,2013-03-09 22:15:00,
2013-03-09 14:20:00,52.3,27.4,30.40,WNW,292,11.0,11.0,38,0.00,,,0.00,Wunderground v.1.15,2013-03-09 22:20:00,
2013-03-09 14:30:00,52.1,26.6,30.41,West,275,10.0,10.0,37,0.00,,,0.00,Wunderground v.1.15,2013-03-09 22:30:00,
2013-03-09 14:35:00,52.3,27.4,30.41,WNW,283,9.0,12.0,38,0.00,,,0.00,Wunderground v.1.15,2013-03-09 22:35:00,
2013-03-09 14:45:00,52.3,28.1,30.41,WNW,284,12.0,19.0,39,0.00,,,0.00,Wunderground v.1.15,2013-03-09 22:45:00,
2013-03-09 14:50:00,52.1,27.9,30.41,West,269,11.0,11.0,39,0.00,,,0.00,Wunderground v.1.15,2013-03-09 22:50:00,
2013-03-09 14:55:00,52.9,27.3,30.41,West,276,11.0,12.0,37,0.00,,,0.00,Wunderground v.1.15,2013-03-09 22:55:00,
2013-03-09 15:05:00,52.7,27.8,30.41,West,273,12.0,22.0,38,0.00,,,0.00,Wunderground v.1.15,2013-03-09 23:05:00,
2013-03-09 15:10:00,52.9,27.3,30.41,WSW,251,11.0,22.0,37,0.00,,,0.00,Wunderground v.1.15,2013-03-09 23:10:00,
2013-03-09 15:15:00,52.5,27.6,30.41,WNW,285,11.0,22.0,38,0.00,,,0.00,Wunderground v.1.15,2013-03-09 23:15:00,
2013-03-09 15:20:00,52.5,27.6,30.41,WNW,287,12.0,12.0,38,0.00,,,0.00,Wunderground v.1.15,2013-03-09 23:20:00,
2013-03-09 15:30:00,52.4,27.5,30.41,West,280,11.0,11.0,38,0.00,,,0.00,Wunderground v.1.15,2013-03-09 23:30:00,
2013-03-09 15:35:00,52.5,27.6,30.41,West,277,11.0,21.0,38,0.00,,,0.00,Wunderground v.1.15,2013-03-09 23:35:00,
2013-03-09 15:45:00,52.3,28.1,30.41,WSW,258,11.0,21.0,39,0.00,,,0.00,Wunderground v.1.15,2013-03-09 23:45:00,
2013-03-09 15:50:00,52.4,28.1,30.42,WNW,302,11.0,11.0,39,0.00,,,0.00,Wunderground v.1.15,2013-03-09 23:50:00,
2013-03-09 15:55:00,52.4,28.1,30.42,West,259,11.0,21.0,39,0.00,,,0.00,Wunderground v.1.15,2013-03-09 23:55:00,
2013-03-09 16:00:00,52.9,28.0,30.42,WNW,302,10.0,10.0,38,0.00,,,0.00,Wunderground v.1.15,2013-03-10 00:00:00,
2013-03-09 16:10:00,53.1,27.5,30.42,WNW,286,11.0,22.0,37,0.00,,,0.00,Wunderground v.1.15,2013-03-10 00:10:00,
2013-03-09 16:15:00,53.4,28.4,30.42,WNW,283,11.0,22.0,38,0.00,,,0.00,Wunderground v.1.15,2013-03-10 00:15:00,
2013-03-09 16:20:00,53.2,28.2,30.42,WSW,258,12.0,22.0,38,0.00,,,0.00,Wunderground v.1.15,2013-03-10 00:20:00,
2013-03-09 16:30:00,53.0,28.0,30.42,NW,311,12.0,22.0,38,0.00,,,0.00,Wunderground v.1.15,2013-03-10 00:30:00,
2013-03-09 16:35:00,53.0,28.0,30.42,West,270,13.0,22.0,38,0.00,,,0.00,Wunderground v.1.15,2013-03-10 00:35:00,
2013-03-09 16:45:00,53.1,28.1,30.42,West,275,11.0,17.0,38,0.00,,,0.00,Wunderground v.1.15,2013-03-10 00:45:00,
2013-03-09 16:50:00,52.9,28.0,30.42,West,272,11.0,20.0,38,0.00,,,0.00,Wunderground v.1.15,2013-03-10 00:50:00,
2013-03-09 17:00:00,53.1,26.8,30.42,NW,317,11.0,20.0,36,0.00,,,0.00,Wunderground v.1.15,2013-03-10 01:00:00,
2013-03-09 17:05:00,53.0,26.7,30.42,WSW,256,12.0,21.0,36,0.00,,,0.00,Wunderground v.1.15,2013-03-10 01:05:00,
2013-03-09 17:15:00,52.8,25.9,30.43,West,273,13.0,22.0,35,0.00,,,0.00,Wunderground v.1.15,2013-03-10 01:15:00,
2013-03-09 17:20:00,52.7,25.8,30.43,WNW,291,11.0,22.0,35,0.00,,,0.00,Wunderground v.1.15,2013-03-10 01:20:00,
2013-03-09 17:30:00,52.5,25.6,30.43,WNW,282,11.0,11.0,35,0.00,,,0.00,Wunderground v.1.15,2013-03-10 01:30:00,
2013-03-09 17:35:00,52.3,25.4,30.43,WNW,282,10.0,27.0,35,0.00,,,0.00,Wunderground v.1.15,2013-03-10 01:35:00,
2013-03-09 17:40:00,52.1,25.9,30.43,West,270,10.0,10.0,36,0.00,,,0.00,Wunderground v.1.15,2013-03-10 01:40:00,
2013-03-09 17:45:00,52.0,25.8,30.43,WNW,288,9.0,27.0,36,0.00,,,0.00,Wunderground v.1.15,2013-03-10 01:45:00,
2013-03-09 17:50:00,51.9,25.1,30.43,West,279,8.0,8.0,35,0.00,,,0.00,Wunderground v.1.15,2013-03-10 01:50:00,
2013-03-09 18:00:00,51.8,24.3,30.44,WNW,298,9.0,27.0,34,0.00,,,0.00,Wunderground v.1.15,2013-03-10 02:00:00,
2013-03-09 18:05:00,51.7,24.2,30.44,WNW,298,9.0,27.0,34,0.00,,,0.00,Wunderground v.1.15,2013-03-10 02:05:00,
2013-03-09 18:15:00,51.5,23.3,30.44,WNW,287,10.0,19.0,33,0.00,,,0.00,Wunderground v.1.15,2013-03-10 02:15:00,
2013-03-09 18:20:00,51.3,23.1,30.45,WNW,296,9.0,9.0,33,0.00,,,0.00,Wunderground v.1.15,2013-03-10 02:20:00,
2013-03-09 18:30:00,51.0,22.9,30.45,WNW,302,8.0,19.0,33,0.00,,,0.00,Wunderground v.1.15,2013-03-10 02:30:00,
2013-03-09 18:35:00,50.9,22.8,30.45,WNW,293,7.0,19.0,33,0.00,,,0.00,Wunderground v.1.15,2013-03-10 02:35:00,
2013-03-09 18:40:00,50.8,22.7,30.45,NW,308,7.0,18.0,33,0.00,,,0.00,Wunderground v.1.15,2013-03-10 02:40:00,
2013-03-09 18:50:00,50.5,23.1,30.46,WNW,289,6.0,18.0,34,0.00,,,0.00,Wunderground v.1.15,2013-03-10 02:50:00,
2013-03-09 19:00:00,50.2,22.9,30.46,NW,312,5.0,18.0,34,0.00,,,0.00,Wunderground v.1.15,2013-03-10 03:00:00,
2013-03-09 19:05:00,50.1,22.8,30.46,WNW,288,5.0,18.0,34,0.00,,,0.00,Wunderground v.1.15,2013-03-10 03:05:00,
2013-03-09 19:15:00,50.1,22.8,30.46,WNW,300,4.0,12.0,34,0.00,,,0.00,Wunderground v.1.15,2013-03-10 03:15:00,
2013-03-09 19:20:00,50.0,23.4,30.46,NW,306,3.0,3.0,35,0.00,,,0.00,Wunderground v.1.15,2013-03-10 03:20:00,
2013-03-09 19:30:00,49.7,23.1,30.47,NW,310,1.0,1.0,35,0.00,,,0.00,Wunderground v.1.15,2013-03-10 03:30:00,
2013-03-09 19:35:00,49.4,22.9,30.47,NW,310,1.0,8.0,35,0.00,,,0.00,Wunderground v.1.15,2013-03-10 03:35:00,
2013-03-09 19:45:00,49.1,23.3,30.47,NW,310,0.0,8.0,36,0.00,,,0.00,Wunderground v.1.15,2013-03-10 03:45:00,
2013-03-09 19:50:00,49.0,23.2,30.47,NW,310,0.0,8.0,36,0.00,,,0.00,Wunderground v.1.15,2013-03-10 03:50:00,
2013-03-09 20:00:00,48.5,23.4,30.47,NW,310,0.0,8.0,37,0.00,,,0.00,Wunderground v.1.15,2013-03-10 04:00:00,
2013-03-09 20:05:00,48.3,23.2,30.47,NW,310,0.0,8.0,37,0.00,,,0.00,Wunderground v.1.15,2013-03-10 04:05:00,
2013-03-09 20:15:00,47.6,23.2,30.47,NW,310,0.0,4.0,38,0.00,,,0.00,Wunderground v.1.15,2013-03-10 04:15:00,
2013-03-09 20:20:00,47.1,23.4,30.48,NW,310,0.0,4.0,39,0.00,,,0.00,Wunderground v.1.15,2013-03-10 04:20:00,
2013-03-09 20:30:00,47.2,24.1,30.48,NW,310,0.0,4.0,40,0.00,,,0.00,Wunderground v.1.15,2013-03-10 04:30:00,
2013-03-09 20:35:00,47.1,24.0,30.48,NW,310,0.0,4.0,40,0.00,,,0.00,Wunderground v.1.15,2013-03-10 04:35:00,
2013-03-09 20:45:00,47.2,25.3,30.48,NW,310,0.0,2.0,42,0.00,,,0.00,Wunderground v.1.15,2013-03-10 04:45:00,
2013-03-09 20:55:00,48.1,25.5,30.48,WNW,300,2.0,2.0,41,0.00,,,0.00,Wunderground v.1.15,2013-03-10 04:55:00,
2013-03-09 21:00:00,48.6,25.3,30.48,WNW,296,3.0,3.0,40,0.00,,,0.00,Wunderground v.1.15,2013-03-10 05:00:00,
2013-03-09 21:05:00,48.9,25.0,30.49,WNW,296,4.0,4.0,39,0.00,,,0.00,Wunderground v.1.15,2013-03-10 05:05:00,
2013-03-09 21:10:00,48.9,25.0,30.49,WNW,292,4.0,7.0,39,0.00,,,0.00,Wunderground v.1.15,2013-03-10 05:10:00,
2013-03-09 21:15:00,49.0,25.1,30.48,WNW,298,4.0,7.0,39,0.00,,,0.00,Wunderground v.1.15,2013-03-10 05:15:00,
2013-03-09 21:20:00,49.0,25.1,30.49,WNW,293,5.0,5.0,39,0.00,,,0.00,Wunderground v.1.15,2013-03-10 05:20:00,
2013-03-09 21:30:00,49.1,25.2,30.49,West,279,5.0,5.0,39,0.00,,,0.00,Wunderground v.1.15,2013-03-10 05:30:00,
2013-03-09 21:35:00,49.0,25.1,30.49,WNW,283,5.0,7.0,39,0.00,,,0.00,Wunderground v.1.15,2013-03-10 05:35:00,
2013-03-09 21:40:00,49.2,24.6,30.49,WNW,287,6.0,6.0,38,0.00,,,0.00,Wunderground v.1.15,2013-03-10 05:40:00,
2013-03-09 21:50:00,49.4,24.8,30.49,WNW,285,6.0,6.0,38,0.00,,,0.00,Wunderground v.1.15,2013-03-10 05:50:00,
2013-03-09 22:00:00,49.2,24.6,30.49,WNW,298,5.0,10.0,38,0.00,,,0.00,Wunderground v.1.15,2013-03-10 06:00:00,
2013-03-09 22:05:00,49.2,24.6,30.49,WNW,289,6.0,11.0,38,0.00,,,0.00,Wunderground v.1.15,2013-03-10 06:05:00,
2013-03-09 22:15:00,49.2,24.6,30.49,NW,308,5.0,6.0,38,0.00,,,0.00,Wunderground v.1.15,2013-03-10 06:15:00,
2013-03-09 22:20:00,49.1,24.6,30.50,NW,307,5.0,11.0,38,0.00,,,0.00,Wunderground v.1.15,2013-03-10 06:20:00,
2013-03-09 22:30:00,49.4,24.8,30.50,WNW,287,5.0,5.0,38,0.00,,,0.00,Wunderground v.1.15,2013-03-10 06:30:00,
2013-03-09 22:35:00,49.3,24.7,30.50,West,272,5.0,12.0,38,0.00,,,0.00,Wunderground v.1.15,2013-03-10 06:35:00,
2013-03-09 22:45:00,50.2,24.2,30.50,WNW,287,7.0,13.0,36,0.00,,,0.00,Wunderground v.1.15,2013-03-10 06:45:00,
2013-03-09 22:50:00,50.5,23.8,30.50,West,273,8.0,13.0,35,0.00,,,0.00,Wunderground v.1.15,2013-03-10 06:50:00,
2013-03-09 23:00:00,50.8,24.1,30.50,West,272,8.0,13.0,35,0.00,,,0.00,Wunderground v.1.15,2013-03-10 07:00:00,
2013-03-09 23:05:00,50.6,23.9,30.49,WNW,290,8.0,16.0,35,0.00,,,0.00,Wunderground v.1.15,2013-03-10 07:05:00,
2013-03-09 23:15:00,50.3,24.3,30.50,WNW,282,7.0,16.0,36,0.00,,,0.00,Wunderground v.1.15,2013-03-10 07:15:00,
2013-03-09 23:20:00,50.1,24.2,30.50,West,273,7.0,7.0,36,0.00,,,0.00,Wunderground v.1.15,2013-03-10 07:20:00,
2013-03-09 23:25:00,49.9,24.0,30.50,WNW,297,6.0,9.0,36,0.00,,,0.00,Wunderground v.1.15,2013-03-10 07:25:00,
2013-03-09 23:30:00,49.9,24.0,30.50,West,279,7.0,7.0,36,0.00,,,0.00,Wunderground v.1.15,2013-03-10 07:30:00,
2013-03-09 23:35:00,49.9,24.0,30.50,West,279,6.0,11.0,36,0.00,,,0.00,Wunderground v.1.15,2013-03-10 07:35:00,
2013-03-09 23:45:00,50.0,24.1,30.50,WNW,289,6.0,17.0,36,0.00,,,0.00,Wunderground v.1.15,2013-03-10 07:45:00,
2013-03-09 23:50:00,50.3,23.7,30.50,WNW,283,7.0,17.0,35,0.00,,,0.00,Wunderground v.1.15,2013-03-10 07:50:00,